Regional Weather Roundup
Issued by NWS Mobile, AL

Home | Current Version | Previous Version | Text Only | Print | Product List | Glossary On
Versions: 1 2 3 4 5 6 7 8 9 10 11 12 13 14 15 16 17 18 19 20 21 22 23 24 25 26 27 28
000
ASUS44 KMOB 230810
RWRMOB
REGIONAL WEATHER ROUNDUP
NATIONAL WEATHER SERVICE MOBILE AL
300 AM CDT WED APR 23 2014

NOTE: "FAIR" INDICATES FEW OR NO CLOUDS BELOW 12,000 FEET WITH NO
      SIGNIFICANT WEATHER AND/OR OBSTRUCTIONS TO VISIBILITY.

  * THESE STATIONS ARE PART OF THE UNIVERSITY OF SOUTH ALABAMA
    MESONET AND ARE NOT UNDER NWS OR FAA QUALITY CONTROL.

ALZ061>064-230900-
COASTAL ALABAMA

CITY           SKY/WX    TMP DP  RH WIND       PRES   REMARKS
MOBILE REG APT CLEAR     58  58 100 CALM      29.91S FOG
BROOKLEY FIELD CLEAR     61  60  97 NW6       29.91F
USA CAMPUS*    NOT AVBL
DOG RIVER*     NOT AVBL


CITY           SKY/WX    TMP DP  RH WIND       PRES   REMARKS
MOUNT VERNON*  NOT AVBL
SARALAND*      NOT AVBL
BAY MINETTE*   NOT AVBL
LOXLEY*        NOT AVBL
ROBERTSDALE*   NOT AVBL
FAIRHOPE*      NOT AVBL
ELBERTA*       NOT AVBL
FOLEY*         NOT AVBL
GRAND BAY*     NOT AVBL
DAUPHIN ISLND* NOT AVBL
BON SCOUR NWR* NOT AVBL
GULF SHORES    PTCLDY    65  64  99 CALM      29.89F FOG

$$

ALZ051>060-230900-
INTERIOR SOUTHWEST AND SOUTH CENTRAL ALABAMA

CITY           SKY/WX    TMP DP  RH WIND       PRES   REMARKS
GREENVILLE     PTCLDY    57  54  89 CALM      29.89S FOG
EVERGREEN      FOG       58  56  93 CALM      29.91S VSB 1/4
CASTLEBERRY*   NOT AVBL
ATMORE*        NOT AVBL
DIXIE*         NOT AVBL
ANDALUSIA/OPP  CLEAR     64  59  83 CALM      29.89S HAZE
ANDALUSIA*     NOT AVBL
FLORALA APT    PTCLDY    60  57  89 CALM      29.90S FOG
FLORALA*         N/A     57  55  94 CALM      29.87S

$$

FLZ001>006-230900-
WESTERN FLORIDA PANHANDLE

CITY           SKY/WX    TMP DP  RH WIND       PRES   REMARKS
PENSACOLA      CLEAR     65  62  90 NW3       29.89S FOG
NAS PENSACOLA  PTCLDY    64  64 100 NW5       29.89S FOG
MILTON         CLEAR     63  61  93 NW5       29.89S FOG
WHTNG S FIELD  CLEAR     62  59  90 NW3       29.89S FOG


CITY           SKY/WX    TMP DP  RH WIND       PRES   REMARKS
WALNUT HILL*   NOT AVBL
JAY*           NOT AVBL
DUKE FIELD     CLEAR     61  61 100 NW2       29.89S
CRESTVIEW      CLEAR     64  62  93 N3        29.90S FOG
VALPARAISO     CLEAR     63  63 100 NW5       29.89S FOG
DESTIN         CLEAR     66  63  90 CALM      29.88S FOG

$$

MSZ076-079-230900-
INTERIOR SOUTHEAST MISSISSIPPI

CITY           SKY/WX    TMP DP  RH WIND       PRES   REMARKS
LEAKESVILLE*     N/A     57  57 100 W2        29.91F
AGRICOLA*      NOT AVBL

$$

MARINE OBSERVATIONS

STATION/POSITION TIME  TEMP    WIND        PRES    WAVE
                       AIR SEA DIR/SP/G            HT/PER
                 (UTC) (F)     (DEG/KT/KT) (MB)    (FT/S)
PASCAGOULA       0800   65     360/  4/  4 1012.1F
PETIT BOIS ISLND 0800   67      10/  4/  5 1012.7S
GRAND BAY        0700   65     350/  3     1013.0S
KATRINA CUT      0700   68      20/  7     1013.5S
CEDAR POINT      0700   66     360/  2     1012.9S
E DAUPHIN ISLAND 0800   68      20/  6/  6 1012.1F
MIDDLE BAY LIGHT 0700   66      10/  5     1012.2S
USCG MOBILE BAY  0800   65 68  330/  4/  5 1011.3F
STATE DOCKS      0800   64 66              1012.2S
MEAHER PARK      0700   64     360/  2     1012.9S
WEEKS BAY        0700   54                   N/A
FORT MORGAN      0800   68      20/  8/  8 1012.0S
12 S ORANGE BCH  0800   68 68  330/ 10/ 10 1012.2F   1
PENSACOLA BAY    0800   67 69  330/  5/  8 1012.3F
64 S DAUPHIN ISL 0730   69 68  270/ 12/ 14 1012.7F
67 S FORT MORGAN 0600   68                 1012.9F

$$

SELECTED LOCATIONS ACROSS THE REGION

CITY           SKY/WX    TMP DP  RH WIND       PRES   REMARKS
NEW ORLEANS    CLEAR     65  63  93 CALM      29.93S
GULFPORT       CLEAR     64  60  87 NW3       29.90F FOG
PASCAGOULA AP  CLEAR     60  59  96 CALM      29.90F FOG
PASCAGOULA*      N/A     63  63 100 CALM      29.90F
HATTIESBURG    CLEAR     57  56  96 CALM      29.92F
LAUREL         CLEAR     61  57  88 NW3       29.93S
MERIDIAN       FOG       54  54 100 CALM      29.92S VSB 1/2
JACKSON        FOG       55  54  94 CALM      29.94S VSB 3/4
MONTGOMERY     FOG       61  57  88 SW3       29.89S VSB 1/4
TROY           FOG       56  55  97 CALM      29.89F VSB 1/4
KINSTON*       NOT AVBL
GENEVA*          N/A     55  54  94 CALM      29.91S
ASHFORD*       NOT AVBL
DOTHAN         CLEAR     61  59  93 CALM      29.91F
PANAMA CITY    CLOUDY    66  64  93 CALM      29.87F FOG

$$




USA.gov is the U.S. government's official web portal to all federal, state and local government web resources and services.